Location: *
(46.4000°N, 12.6667°E)
Time: 21:14:30
(UTC+00:00)

Envisat - Pass Details

Date: 13 March 2021
Orbit: 764 x 766 km, 98.1° (Epoch: 12 April)

Event Time Altitude Azimuth Distance (km) Brightness Sun altitude
Rises 03:46:52 0° 26° (NNE) 3,242 6.9 -17.8°
Reaches altitude 10° 03:49:41 10° 41° (NE) 2,310 6.3 -17.3°
Maximum altitude 03:53:37 22° 92° (E) 1,623 5.6 -16.6°
Drops below altitude 10° 03:57:30 10° 142° (SE) 2,296 5.8 -16.0°
Sets 04:00:17 0° 158° (SSE) 3,216 6.4 -15.5°
